Regional Weather Roundup
Issued by NWS New Orleans/Baton Rouge, LA

Home | Current Version | Previous Version | Graphics & Text | Print | Product List | Glossary On
Versions: 1 2 3 4 5 6 7 8 9 10 11 12 13 14 15 16 17 18 19 20 21 22 23 24 25 26 27 28 29 30 31 32 33 34 35 36 37 38 39 40 41 42 43 44 45 46 47 48 49 50
672
ASUS44 KLIX 220410
RWRLIX
NEW ORLEANS REGIONAL WEATHER ROUNDUP
NATIONAL WEATHER SERVICE NEW ORLEANS LA
1100 PM CDT TUE OCT 21 2014

NOTE: "FAIR" INDICATES FEW OR NO CLOUDS BELOW 12,000 FEET WITH NO
      SIGNIFICANT WEATHER AND/OR OBSTRUCTIONS TO VISIBILITY.
      SKY/WX - SKY CONDITION AND SIGNIFICANT WEATHER.
      TMP - AIR TEMPERATURE.     DP    - DEWPOINT TEMPERATURE.
      RH  - RELATIVE HUMIDITY.   PRES  - PRESSURE.
      HI  - HEAT INDEX.          WCI   - WIND CHILL INDEX.

*  THESE STATIONS ARE NOT NWS OR FAA STATIONS AND ARE NOT UNDER
   NWS QUALITY CONTROL.

LAZ038-040-048-061>063-065>067-069-220500-
SOUTHEAST LOUISIANA

CITY           SKY/WX    TMP DP  RH WIND       PRES   REMARKS
N.O. AUDUBON     N/A     64  62  91 MISG        N/A
N.O. INTL ARPT PTCLDY    65  57  75 CALM      30.03S
N.O. LAKEFRONT CLEAR     70  57  63 CALM      30.04R
N.O. DOWNTOWN*   N/A     70  54  56 CALM      30.04S
SLIDELL        CLEAR     58  54  86 CALM      30.04R
BATON ROUGE    CLEAR     61  57  87 NE3       30.05R
BOOTHVILLE     CLEAR     69  63  81 N3        30.02S
BELLE CHASSE   CLEAR     58  54  86 CALM      30.03S
BOGALUSA*        N/A     57  54  89 N3        30.05F
NEW ROADS*       N/A     65  59  81 NE6       30.05S
GONZALES*        N/A     60  60 100 CALM      30.04S
HAMMOND*       CLEAR     61  55  82 N3        30.06R
HOUMA*         CLEAR     60  58  91 CALM      30.03S
PORT FOURCHON* CLEAR     72  61  68 NE5       30.05S

$$

MSZ070-080>082-220500-
SOUTHERN MISSISSIPPI

CITY           SKY/WX    TMP DP  RH WIND       PRES   REMARKS
MCCOMB         CLEAR     65  57  75 N5        30.06S
GULFPORT       CLEAR     62  58  86 CALM      30.02S
BILOXI         CLEAR     64  57  77 NE5       30.03R HAZE
PASCAGOULA     CLEAR     53  52  96 CALM      30.03S

$$

COASTAL OBSERVATIONS
LAKE AND NEARSHORE STATIONS

STATION/POSITION TIME  TEMP    WIND        PRES    WAVE
                       AIR SEA DIR/SP/G            HT/PER
                 (UTC) (F)     (DEG/KT/KT) (MB)    (FT/S)
PASCAGOULA       0400   65     350/  6/  6 1016.1
WAVELAND YACHT   0400   69      40/  5/  6 1016.1
GRAND ISLE       0400   72 76   60/  5/  6 1017.1
SOUTHWEST PASS   0400   72 83              1016.7
NEW CANAL        0400   70 72     CALM     1017.4
SHELL BEACH      0400   70 70   CALM  /  1 1016.8

OFFSHORE STATIONS

STATION/POSITION TIME  TEMP    WIND        PRES    WAVE
                       AIR SEA DIR/SP/G            HT/PER
                 (UTC) (F)     (DEG/KT/KT) (MB)    (FT/S)
64 S DAUPHIN ISL 0333   75 79   30/ 10/ 12 1016.8    2/ 4

$$




USA.gov is the U.S. government's official web portal to all federal, state and local government web resources and services.